Simultaneous Nadir Overpasses (SNOs) Predictions

Prediction of SNOs near US between AQUA and NPP Satellite Orbit:

Table of predicted SNOs near US for the next 10.0 days since TLE Epoch: 3/28/2014
Index Date (AQUA) Time (AQUA) AQUA Lat,Lon Date (NPP) Time (NPP) NPP Lat,Lon Distance(km) Time Diff (sec)
1 03/29/2014 06:57:06 20.02, -77.21 03/29/2014 06:48:55 19.92, -76.74 51.24 491
2 03/29/2014 08:33:29 29.06, -99.73 03/29/2014 08:27:49 29.06, -99.76 2.03 340
3 03/29/2014 10:09:40 38.73,-121.75 03/29/2014 10:06:31 38.80,-122.23 42.59 189
4 04/01/2014 07:19:40 49.91, -76.05 04/01/2014 07:24:44 50.32, -78.19 159.56 304
5 04/01/2014 08:58:33 49.91,-100.77 04/01/2014 09:06:12 50.43,-103.51 204.06 459
6 04/03/2014 18:17:48 49.98, -80.23 04/03/2014 18:15:07 49.71, -81.90 123.49 161
7 04/03/2014 19:56:41 49.98,-104.95 04/03/2014 19:56:35 49.60,-107.22 168.72 6
8 04/06/2014 07:46:27 20.00, -89.56 04/06/2014 07:39:58 19.99, -89.44 12.84 389
9 04/06/2014 09:21:00 35.64,-110.29 04/06/2014 09:17:00 35.67,-110.57 25.43 240




NCC Satellite Simultaneous Nadir Overpasses (SNOs) Prediction Service
